| time (UTC) | temp F | wind direction | speed knots | gust knots | rain 1hr in | rain 24hr in | rain mn in | humidity % | barometer mb |
| 20260507064607 | 54 | 329 | 0.9 | 7.0 | 0.00 | 0.00 | 0.00 | 76 | 1020.7 |
| 20260507063031 | 55 | 277 | 1.7 | 5.2 | 0.00 | 0.00 | 0.00 | 76 | 1020.8 |
| 20260507061530 | 54 | 214 | 0.0 | 4.3 | 0.00 | 0.00 | 0.00 | 76 | 1020.8 |
| 20260507060030 | 54 | 245 | 0.9 | 4.3 | 0.00 | 0.00 | 0.00 | 77 | 1021.0 |
| 20260507054532 | 53 | 255 | 0.9 | 7.0 | 0.00 | 0.00 | 0.00 | 76 | 1021.0 |
| 20260507053107 | 54 | 242 | 1.7 | 4.3 | 0.00 | 0.00 | 0.00 | 73 | 1021.0 |
| 20260507051529 | 57 | 173 | 0.9 | 3.5 | 0.00 | 0.00 | 0.00 | 71 | 1021.1 |
| 20260507050035 | 56 | 274 | 1.7 | 9.6 | 0.00 | 0.00 | 0.00 | 70 | 1021.1 |
| 20260507044528 | 57 | 291 | 0.9 | 5.2 | 0.00 | 0.00 | 0.00 | 68 | 1021.0 |
| 20260507043030 | 58 | 315 | 1.7 | 9.6 | 0.00 | 0.00 | 0.00 | 67 | 1020.9 |
| 20260507041530 | 57 | 261 | 1.7 | 7.8 | 0.00 | 0.00 | 0.00 | 66 | 1020.7 |
| 20260507040037 | 57 | 259 | 1.7 | 5.2 | 0.00 | 0.00 | 0.00 | 65 | 1020.7 |
| 20260507034533 | 59 | 171 | 0.9 | 7.0 | 0.00 | 0.00 | 0.00 | 63 | 1020.7 |
| 20260507033030 | 60 | 238 | 1.7 | 7.8 | 0.00 | 0.00 | 0.00 | 61 | 1020.6 |
| 20260507031531 | 61 | 280 | 1.7 | 9.6 | 0.00 | 0.00 | 0.00 | 58 | 1020.6 |
| 20260507030032 | 63 | 225 | 1.7 | 6.1 | 0.00 | 0.00 | 0.00 | 57 | 1020.7 |
| 20260507024528 | 64 | 248 | 2.6 | 9.6 | 0.00 | 0.00 | 0.00 | 55 | 1020.6 |
| 20260507023031 | 65 | 259 | 3.5 | 8.7 | 0.00 | 0.00 | 0.00 | 53 | 1020.6 |
| 20260507014646 | 68 | 235 | 4.3 | 11.3 | 0.00 | 0.00 | 0.00 | 49 | 1020.2 |
| 20260507013031 | 70 | 241 | 4.3 | 13.9 | 0.00 | 0.00 | 0.00 | 47 | 1020.1 |
| 20260507010032 | 71 | 274 | 3.5 | 9.6 | 0.00 | 0.00 | 0.00 | 44 | 1020.1 |
| 20260507003032 | 74 | 254 | 4.3 | 9.6 | 0.00 | 0.00 | 0.00 | 41 | 1019.9 |
| 20260507001531 | 74 | 261 | 4.3 | 11.3 | 0.00 | 0.00 | 0.00 | 42 | 1019.8 |
| 20260507000031 | 73 | 265 | 3.5 | 10.4 | 0.00 | 0.00 | 0.00 | 42 | 1019.6 |
| 20260506230030 | 75 | 258 | 5.2 | 15.6 | 0.00 | 0.00 | 0.00 | 40 | 1019.4 |
| 20260506224529 | 75 | 264 | 7.0 | 16.5 | 0.00 | 0.00 | 0.00 | 40 | 1019.5 |
| 20260506223032 | 74 | 272 | 5.2 | 13.0 | 0.00 | 0.00 | 0.00 | 42 | 1019.6 |
| 20260506221606 | 73 | 293 | 7.0 | 16.5 | 0.00 | 0.00 | 0.00 | 43 | 1019.8 |
| 20260506220031 | 73 | 289 | 8.7 | 15.6 | 0.00 | 0.00 | 0.00 | 43 | 1019.7 |
| 20260506214532 | 74 | 289 | 8.7 | 18.2 | 0.00 | 0.00 | 0.00 | 44 | 1019.6 |
| 20260506213029 | 72 | 267 | 6.1 | 17.4 | 0.00 | 0.00 | 0.00 | 47 | 1019.6 |
| 20260506211529 | 72 | 256 | 5.2 | 14.8 | 0.00 | 0.00 | 0.00 | 47 | 1019.6 |
| 20260506210030 | 71 | 254 | 4.3 | 14.8 | 0.00 | 0.00 | 0.00 | 48 | 1019.7 |
| 20260506204531 | 71 | 274 | 5.2 | 15.6 | 0.00 | 0.00 | 0.00 | 48 | 1019.9 |
| 20260506203031 | 72 | 283 | 7.0 | 14.8 | 0.00 | 0.00 | 0.00 | 46 | 1019.8 |
| 20260506201540 | 72 | 282 | 6.1 | 14.8 | 0.00 | 0.00 | 0.00 | 45 | 1019.8 |
| 20260506200028 | 72 | 284 | 4.3 | 11.3 | 0.00 | 0.00 | 0.00 | 46 | 1019.8 |
| 20260506194532 | 72 | 278 | 7.8 | 15.6 | 0.00 | 0.00 | 0.00 | 46 | 1019.8 |
| 20260506193104 | 72 | 273 | 6.1 | 12.2 | 0.00 | 0.00 | 0.00 | 47 | 1019.9 |
| 20260506191531 | 72 | 283 | 7.0 | 16.5 | 0.00 | 0.00 | 0.00 | 47 | 1019.9 |
| 20260506190031 | 72 | 284 | 6.1 | 14.8 | 0.00 | 0.00 | 0.00 | 47 | 1019.9 |
| 20260506183147 | 71 | 290 | 3.5 | 8.7 | 0.00 | 0.00 | 0.00 | 50 | 1019.8 |
| 20260506181530 | 70 | 294 | 6.1 | 13.0 | 0.00 | 0.00 | 0.00 | 51 | 1020.0 |
| 20260506180031 | 70 | 299 | 7.0 | 17.4 | 0.00 | 0.00 | 0.00 | 50 | 1019.9 |
| 20260506174529 | 73 | 290 | 7.8 | 15.6 | 0.00 | 0.00 | 0.00 | 47 | 1019.8 |
| 20260506173029 | 73 | 267 | 4.3 | 11.3 | 0.00 | 0.00 | 0.00 | 49 | 1019.6 |
| 20260506171531 | 70 | 280 | 1.7 | 7.8 | 0.00 | 0.00 | 0.00 | 52 | 1019.6 |
| 20260506170030 | 68 | 299 | 4.3 | 8.7 | 0.00 | 0.00 | 0.00 | 54 | 1019.7 |
| 20260506164530 | 67 | 301 | 5.2 | 11.3 | 0.00 | 0.00 | 0.00 | 56 | 1019.7 |
| 20260506163031 | 66 | 279 | 6.1 | 14.8 | 0.00 | 0.00 | 0.00 | 58 | 1020.2 |
| 20260506161529 | 66 | 282 | 6.1 | 12.2 | 0.00 | 0.00 | 0.00 | 59 | 1020.3 |
| 20260506154530 | 67 | 268 | 3.5 | 12.2 | 0.00 | 0.00 | 0.00 | 61 | 1020.1 |
| 20260506153107 | 66 | 116 | 0.0 | 2.6 | 0.00 | 0.00 | 0.00 | 68 | 1020.0 |
| 20260506151530 | 64 | 145 | 0.9 | 2.6 | 0.00 | 0.00 | 0.00 | 76 | 1019.9 |
| 20260506150106 | 62 | 117 | 0.0 | 3.5 | 0.00 | 0.00 | 0.00 | 82 | 1020.2 |
| 20260506144530 | 59 | 131 | 0.0 | 1.7 | 0.00 | 0.00 | 0.00 | 87 | 1020.2 |
| 20260506141646 | 53 | 174 | 0.9 | 2.6 | 0.00 | 0.00 | 0.00 | 93 | 1020.1 |
| 20260506134534 | 47 | 221 | 0.9 | 2.6 | 0.00 | 0.00 | 0.00 | 95 | 1019.7 |
| 20260506133144 | 45 | 182 | 2.6 | 5.2 | 0.00 | 0.00 | 0.00 | 96 | 1019.5 |
| 20260506131531 | 44 | 218 | 3.5 | 9.6 | 0.00 | 0.00 | 0.00 | 96 | 1019.4 |
| 20260506130031 | 43 | 175 | 1.7 | 5.2 | 0.00 | 0.00 | 0.00 | 96 | 1019.3 |
| 20260506124533 | 43 | 144 | 1.7 | 4.3 | 0.00 | 0.00 | 0.00 | 96 | 1019.2 |
| 20260506123037 | 42 | 184 | 0.0 | 3.5 | 0.00 | 0.00 | 0.00 | 96 | 1019.0 |
| 20260506121539 | 42 | 159 | 0.9 | 4.3 | 0.00 | 0.00 | 0.00 | 96 | 1018.8 |
| 20260506120030 | 42 | 158 | 0.9 | 2.6 | 0.00 | 0.00 | 0.00 | 96 | 1018.7 |
| 20260506114603 | 42 | 145 | 0.9 | 3.5 | 0.00 | 0.00 | 0.00 | 95 | 1018.6 |
| 20260506113104 | 42 | 135 | 0.0 | 1.7 | 0.00 | 0.00 | 0.00 | 95 | 1018.4 |
| 20260506110030 | 43 | 138 | 0.9 | 2.6 | 0.00 | 0.00 | 0.00 | 95 | 1018.2 |
| 20260506103032 | 43 | 149 | 0.9 | 3.5 | 0.00 | 0.00 | 0.00 | 95 | 1017.9 |
| 20260506101529 | 43 | 157 | 0.9 | 2.6 | 0.00 | 0.00 | 0.00 | 95 | 1017.9 |
| 20260506100053 | 43 | 146 | 0.9 | 2.6 | 0.00 | 0.00 | 0.00 | 95 | 1017.8 |
| 20260506093145 | 44 | 157 | 0.9 | 1.7 | 0.00 | 0.00 | 0.00 | 94 | 1017.8 |
| 20260506091532 | 44 | 157 | 0.0 | 0.0 | 0.00 | 0.00 | 0.00 | 94 | 1017.7 |
| 20260506090037 | 45 | 157 | 0.0 | 2.6 | 0.00 | 0.00 | 0.00 | 94 | 1017.7 |
| 20260506084530 | 45 | 157 | 0.0 | 2.6 | 0.00 | 0.00 | 0.00 | 94 | 1017.6 |
| 20260506083028 | 46 | 157 | 0.9 | 3.5 | 0.00 | 0.00 | 0.00 | 93 | 1017.5 |
| 20260506081607 | 46 | 157 | 0.9 | 3.5 | 0.00 | 0.00 | 0.00 | 93 | 1017.4 |
| 20260506073032 | 46 | 148 | 0.0 | 2.6 | 0.00 | 0.00 | 0.00 | 92 | 1017.1 |
| 20260506071532 | 47 | 292 | 0.0 | 0.0 | 0.00 | 0.00 | 0.00 | 92 | 1017.0 |